[[[{"header":{"parameterUnit":"kt","parameterCategory":2,"dx":1,"dy":1,"la1":30.253999710083008,"la2":30.299108505249023,"lo1":-89.0895004272461,"lo2":-89.04439544677734,"nx":28,"ny":28,"refTime":"2022-10-04T21:00:00:Z","depth":"0","parameterNumber":2,"parameterNumberName":"U-component_of_CURRENTS"},"data":[-0.2965,-0.2912,-0.2889,-0.2835,-0.2823,-0.2766,-0.2733,-0.267,-0.2713,-0.2864,-0.3107,-0.3405,-0.3621,-0.3819,-0.3806,-0.3759,-0.3596,-0.3394,-0.3427,-0.3733,-0.3737,-0.3741,-0.374,-0.3709,-0.371,-0.3011,-0.3007,-0.3005,-0.2991,-0.2953,-0.292,-0.2884,-0.2868,-0.2878,-0.285,-0.28,-0.279,-0.2944,-0.3056,-0.3402,-0.3589,-0.3746,-0.3855,-0.3785,-0.3626,-0.3709,-0.3396,-0.3427,-0.3694,-0.3689,-0.3647,-0.3647,-0.3647,-0.3647,-0.3647,-0.3647,-0.3032,-0.3002,-0.2963,-0.2932,-0.2923,-0.2911,-0.2881,-0.2893,-0.2909,-0.2976,-0.3105,-0.3269,-0.3493,-0.3711,-0.3737,-0.376,-0.3661,-0.3717,-0.3764,-0.3492,-0.3484,-0.3738,-0.3721,-0.3721,-0.3721,-0.3721,-0.3722,0,-0.3057,-0.3039,-0.3016,-0.2983,-0.2968,-0.2961,-0.2959,-0.2956,-0.3008,-0.3053,-0.314,-0.3234,-0.3421,-0.3568,-0.3691,-0.3743,-0.3654,-0.3753,-0.3747,-0.3793,-0.3491,-0.3533,-0.3822,-0.3767,-0.3767,-0.3768,-0.3768,-0.3768,-0.3068,-0.3062,-0.3031,-0.3018,-0.3011,-0.3002,-0.3009,-0.3049,-0.3069,-0.316,-0.318,-0.3283,-0.3399,-0.3541,-0.3662,-0.3767,-0.3711,-0.3763,-0.3798,-0.3779,-0.3851,-0.3593,-0.3608,-0.3774,-0.3773,-0.3773,-0.3772,0,-0.3065,-0.3059,-0.3046,-0.3046,-0.3049,-0.3046,-0.3064,-0.3086,-0.3143,-0.319,-0.3209,-0.334,-0.3434,-0.3537,-0.3656,-0.3704,-0.3731,-0.3813,-0.3782,-0.3811,-0.3824,-0.3865,-0.3522,-0.3528,-0.3822,-0.3821,-0.3821,0,-0.3058,-0.3056,-0.3041,-0.3048,-0.305,-0.3087,-0.3112,-0.317,-0.3229,-0.3267,-0.3361,-0.3419,-0.3532,-0.3598,-0.3685,-0.3761,-0.376,-0.3848,-0.3882,-0.3873,-0.3873,-0.3901,-0.3946,-0.3874,-0.3874,-0.3874,-0.3874,0,-0.3058,-0.3057,-0.3055,-0.3066,-0.3112,-0.3127,-0.3159,-0.3255,-0.3294,-0.3381,-0.3416,-0.3502,-0.3558,-0.3613,-0.3738,-0.3758,-0.3807,-0.3866,-0.3897,-0.3898,-0.3918,-0.3922,-0.3822,-0.3874,-0.3874,-0.3874,-0.3874,0,-0.3064,-0.3064,-0.3067,-0.3094,-0.3103,-0.3137,-0.3222,-0.3276,-0.3376,-0.3433,-0.3499,-0.3593,-0.3656,-0.3704,-0.3789,-0.3793,-0.3849,-0.391,-0.3913,-0.3945,-0.4025,-0.3975,-0.3903,-0.3896,-0.3971,-0.3971,-0.3972,0,-0.3067,-0.3071,-0.3092,-0.3119,-0.3131,-0.3206,-0.3254,-0.3344,-0.3425,-0.3502,-0.3591,-0.3693,-0.376,-0.3821,-0.3832,-0.3958,-0.3943,-0.3958,-0.4041,-0.4043,-0.4016,-0.3947,-0.3929,-0.3914,-0.398,-0.3979,-0.3978,0,-0.3082,-0.3095,-0.3097,-0.3107,-0.3186,-0.324,-0.3289,-0.3384,-0.3425,-0.3534,-0.3589,-0.3744,-0.3802,-0.388,-0.399,-0.3998,-0.3961,-0.4052,-0.4056,-0.402,-0.3967,-0.396,-0.3954,-0.3999,-0.3998,-0.3997,-0.3984,0,-0.3087,-0.3102,-0.3102,-0.3159,-0.3212,-0.3248,-0.3343,-0.3408,-0.3479,-0.3571,-0.3677,-0.3821,-0.3953,-0.4001,-0.4086,-0.411,-0.4132,-0.4184,-0.4201,-0.4158,-0.4163,-0.4158,-0.4256,-0.4258,-0.426,-0.4262,0,0,-0.3096,-0.312,-0.318,-0.3199,-0.3239,-0.3344,-0.3372,-0.3453,-0.3623,-0.3668,-0.3699,-0.3934,-0.4044,-0.415,-0.4158,-0.4226,-0.4235,-0.4215,-0.4194,-0.4186,-0.4179,-0.418,-0.4172,-0.4265,-0.4266,-0.4266,-0.4267,0,-0.311,-0.3145,-0.3155,-0.3211,-0.3296,-0.338,-0.3386,-0.3526,-0.3589,-0.3694,-0.3815,-0.3906,-0.4074,-0.417,-0.4237,-0.4248,-0.4293,-0.4285,-0.4196,-0.421,-0.4199,-0.419,-0.4189,-0.4181,-0.4272,-0.4271,-0.4271,0,-0.3128,-0.3182,-0.3202,-0.33,-0.3371,-0.3423,-0.3509,-0.3578,-0.3635,-0.3782,-0.3885,-0.3993,-0.413,-0.422,-0.4265,-0.4278,-0.4327,-0.4349,-0.4342,-0.4322,-0.4339,-0.4327,-0.4317,-0.4442,-0.4442,-0.4442,0,0,-0.314,-0.3166,-0.3279,-0.3316,-0.3338,-0.3472,-0.3529,-0.3606,-0.3722,-0.3775,-0.3893,-0.4008,-0.4114,-0.4166,-0.4277,-0.4346,-0.4366,-0.4363,-0.4355,-0.4348,-0.4325,-0.4339,-0.4329,-0.4441,-0.4441,-0.4441,0,0,-0.3165,-0.3264,-0.33,-0.334,-0.3434,-0.3592,-0.362,-0.3696,-0.3814,-0.3816,-0.3957,-0.3992,-0.4084,-0.4159,-0.4141,-0.4272,-0.4313,-0.432,-0.4206,-0.4198,-0.419,-0.4135,-0.4222,0,0,0,0,0,-0.3237,-0.3242,-0.3273,-0.3294,-0.3457,-0.3566,-0.3596,-0.3711,-0.374,-0.377,-0.3883,-0.3939,-0.4182,-0.4169,-0.42,-0.4198,-0.4437,-0.4438,-0.4438,-0.4311,-0.4301,-0.4293,0,0,0,0,0,0,-0.3246,-0.3269,-0.3274,-0.3419,-0.3457,-0.3567,-0.3638,-0.3672,-0.374,-0.3753,-0.3918,-0.3944,-0.4042,-0.4159,-0.4186,-0.4182,-0.4213,-0.4437,-0.4438,-0.4438,-0.4308,-0.4299,-0.4292,0,0,0,0,0,-0.3254,-0.3272,-0.349,-0.3423,-0.3456,-0.3609,-0.3638,-0.3667,-0.3732,-0.3881,-0.3911,-0.3809,-0.404,-0.4069,-0.4176,-0.4167,-0.4195,-0.4205,-0.4438,-0.4438,-0.4439,-0.4304,0,0,0,0,0,0,-0.3259,-0.3327,-0.3501,-0.3518,-0.3414,-0.3607,-0.3636,-0.3662,-0.3859,-0.3887,-0.3777,-0.3784,-0.4039,-0.4062,-0.4084,-0.4155,-0.4181,-0.4191,-0.4197,-0.4438,-0.4438,-0.4439,0,0,0,0,0,0,-0.3318,-0.334,-0.351,-0.3492,-0.3509,-0.3605,-0.363,-0.3727,-0.3859,-0.3746,-0.3758,-0.3777,-0.399,-0.4056,-0.4074,-0.4224,-0.417,-0.4179,-0.4186,-0.419,-0.4438,-0.4439,0,0,0,0,0,0,-0.333,-0.335,-0.3489,-0.3502,-0.3516,-0.3722,-0.3695,-0.3852,-0.3854,-0.3736,-0.3854,-0.3855,-0.3982,-0.4003,-0.4067,-0.4209,-0.422,-0.417,-0.4177,-0.4181,-0.4184,0,0,0,0,0,0,0,-0.3341,-0.3166,-0.339,-0.351,-0.3523,-0.3672,-0.3678,-0.3684,-0.3854,-0.3854,-0.3854,-0.3855,-0.4117,-0.4127,-0.4137,-0.4196,0,0,-0.4169,-0.4174,0,0,0,0,0,0,0,0,-0.3162,-0.3165,-0.339,-0.3393,-0.3396,-0.3673,-0.3678,-0.3682,-0.3854,-0.3854,-0.3854,-0.3855,-0.412,-0.4128,-0.4136,0,0,0,0,0,0,0,0,0,0,0,0,0,0,0,-0.3391,-0.3393,0,-0.3674,-0.3678,-0.3681,-0.3854,-0.3854,-0.3854,-0.3854,-0.4122,-0.4129,-0.4136,0,0,0,0,0,0,0,0,0,0,0,0,0,0,0,0,0,0,0,0,0,0,0,0,0,0,0,0,0,0,0,0,0,0,0,0,0,0,0,0,0,0,0,0,0,0,0,0,0,0,0,0,0,0,0,0,0,0,0,0,0,0,0,0,0,0,0,0,0]}],[{"header":{"parameterUnit":"kt","parameterCategory":2,"dx":1,"dy":1,"la1":30.253999710083008,"la2":30.299108505249023,"lo1":-89.0895004272461,"lo2":-89.04439544677734,"nx":28,"ny":28,"refTime":"2022-10-04T21:00:00:Z","depth":"0","parameterNumber":3,"parameterNumberName":"V-component_of_CURRENTS"},"data":[-0.1888,-0.1934,-0.1967,-0.2064,-0.2105,-0.2182,-0.222,-0.231,-0.2371,-0.2458,-0.2438,-0.2371,-0.1969,-0.1572,-0.1282,-0.1242,-0.1185,-0.1161,-0.1128,-0.1124,-0.1115,-0.1107,-0.113,-0.1189,-0.1189,-0.1159,-0.1158,-0.1158,-0.1889,-0.1913,-0.1946,-0.1984,-0.2037,-0.2033,-0.207,-0.2114,-0.2189,-0.2234,-0.2269,-0.2161,-0.202,-0.1777,-0.1514,-0.1352,-0.1308,-0.1238,-0.1158,-0.1214,-0.1243,-0.1278,-0.1369,-0.1369,-0.1369,-0.1369,-0.1369,-0.1369,-0.1887,-0.1893,-0.1912,-0.1934,-0.195,-0.1986,-0.2,-0.2006,-0.2029,-0.2055,-0.2005,-0.2001,-0.1848,-0.1628,-0.1486,-0.1278,-0.1247,-0.1187,-0.1145,-0.1072,-0.1157,-0.1224,-0.1261,-0.126,-0.1258,-0.1258,-0.1257,0,-0.1876,-0.188,-0.1867,-0.1898,-0.1897,-0.1884,-0.1862,-0.1872,-0.1798,-0.1806,-0.1815,-0.1782,-0.165,-0.1572,-0.1376,-0.1264,-0.106,-0.108,-0.1005,-0.1094,-0.1055,-0.1119,-0.1131,-0.1141,-0.1139,-0.1138,-0.1137,-0.1136,-0.1847,-0.1863,-0.1834,-0.1837,-0.1811,-0.1783,-0.1767,-0.1683,-0.1674,-0.1607,-0.1618,-0.1536,-0.1495,-0.1332,-0.1212,-0.108,-0.0984,-0.1038,-0.1027,-0.0992,-0.0959,-0.0893,-0.0951,-0.1115,-0.1118,-0.112,-0.1122,0,-0.1827,-0.1805,-0.1791,-0.1739,-0.1726,-0.1711,-0.1637,-0.162,-0.1554,-0.153,-0.1514,-0.1402,-0.1329,-0.119,-0.1068,-0.0988,-0.0914,-0.0895,-0.1009,-0.1025,-0.0985,-0.0956,-0.0859,-0.0924,-0.0893,-0.0894,-0.0895,0,-0.1767,-0.1753,-0.1714,-0.1706,-0.1689,-0.1609,-0.1581,-0.1514,-0.1444,-0.1421,-0.131,-0.1302,-0.115,-0.1085,-0.0998,-0.0937,-0.0907,-0.0888,-0.089,-0.097,-0.0983,-0.095,-0.0926,-0.0817,-0.0817,-0.0817,-0.0818,0,-0.1742,-0.1675,-0.1673,-0.164,-0.1559,-0.1536,-0.1485,-0.1395,-0.1356,-0.1276,-0.1266,-0.1165,-0.1151,-0.106,-0.0987,-0.0977,-0.0903,-0.0888,-0.0895,-0.09,-0.0986,-0.1001,-0.0908,-0.0818,-0.0818,-0.0818,-0.0818,0,-0.1669,-0.165,-0.1626,-0.1559,-0.1534,-0.1501,-0.1425,-0.1369,-0.1276,-0.1234,-0.1175,-0.1135,-0.1074,-0.1056,-0.0968,-0.0987,-0.0947,-0.0921,-0.092,-0.099,-0.101,-0.1077,-0.1044,-0.0991,-0.092,-0.0921,-0.0921,0,-0.1669,-0.1637,-0.1577,-0.1533,-0.15,-0.1414,-0.1364,-0.1296,-0.1236,-0.119,-0.1129,-0.1103,-0.1066,-0.1071,-0.102,-0.1,-0.0961,-0.0987,-0.0967,-0.0967,-0.1024,-0.0972,-0.1063,-0.105,-0.093,-0.0929,-0.0929,0,-0.1661,-0.1578,-0.1569,-0.1546,-0.1445,-0.1417,-0.1349,-0.1277,-0.1251,-0.1179,-0.1148,-0.1091,-0.108,-0.1074,-0.1066,-0.1034,-0.0978,-0.1038,-0.1038,-0.1034,-0.0924,-0.0979,-0.0978,-0.0966,-0.0965,-0.0964,-0.0936,0,-0.1611,-0.158,-0.1562,-0.1496,-0.1454,-0.1411,-0.1331,-0.1294,-0.1253,-0.121,-0.1163,-0.1135,-0.1118,-0.1106,-0.11,-0.1064,-0.1076,-0.1079,-0.1112,-0.1066,-0.1061,-0.1055,-0.1141,-0.1142,-0.1143,-0.1144,0,0,-0.1617,-0.158,-0.1527,-0.1493,-0.1451,-0.139,-0.1359,-0.1313,-0.1256,-0.1232,-0.1223,-0.1179,-0.1177,-0.1149,-0.1123,-0.1126,-0.112,-0.1158,-0.109,-0.1083,-0.1078,-0.1071,-0.1064,-0.1145,-0.1146,-0.1146,-0.1146,0,-0.1592,-0.155,-0.1537,-0.1488,-0.1423,-0.1385,-0.1374,-0.131,-0.1281,-0.1239,-0.1228,-0.1207,-0.1197,-0.1183,-0.1179,-0.1138,-0.1168,-0.1146,-0.1128,-0.1098,-0.109,-0.1084,-0.1075,-0.1069,-0.1148,-0.1148,-0.1148,0,-0.1568,-0.1531,-0.1516,-0.1456,-0.1414,-0.1372,-0.1353,-0.1314,-0.1282,-0.1287,-0.125,-0.1242,-0.1241,-0.1219,-0.1216,-0.1234,-0.1207,-0.1228,-0.1223,-0.1234,-0.1206,-0.1197,-0.1189,-0.1289,-0.129,-0.129,0,0,-0.1554,-0.1533,-0.1462,-0.1445,-0.1414,-0.1365,-0.1342,-0.1319,-0.1286,-0.1277,-0.127,-0.1263,-0.1251,-0.1253,-0.1248,-0.1243,-0.1248,-0.1244,-0.1237,-0.1232,-0.1239,-0.121,-0.1201,-0.1291,-0.1291,-0.1291,0,0,-0.1547,-0.1478,-0.1457,-0.1431,-0.1384,-0.1328,-0.1312,-0.1294,-0.1274,-0.1272,-0.1275,-0.1276,-0.1259,-0.1276,-0.1289,-0.127,-0.1298,-0.1296,-0.126,-0.1252,-0.1245,-0.1253,-0.1325,0,0,0,0,0,-0.149,-0.1483,-0.1465,-0.1452,-0.1384,-0.1335,-0.1326,-0.1293,-0.129,-0.1284,-0.1264,-0.1296,-0.1272,-0.1284,-0.1289,-0.1285,-0.1309,-0.1306,-0.1303,-0.1255,-0.1246,-0.1239,0,0,0,0,0,0,-0.1484,-0.147,-0.1464,-0.1409,-0.1392,-0.1336,-0.1324,-0.1316,-0.129,-0.1288,-0.1293,-0.1296,-0.13,-0.1284,-0.1288,-0.1284,-0.1324,-0.1308,-0.1305,-0.1303,-0.1252,-0.1245,-0.1238,0,0,0,0,0,-0.148,-0.1468,-0.1369,-0.1409,-0.1394,-0.1343,-0.1325,-0.1318,-0.1305,-0.1298,-0.1299,-0.128,-0.13,-0.1304,-0.1287,-0.1281,-0.1321,-0.1323,-0.1306,-0.1304,-0.1302,-0.1248,0,0,0,0,0,0,-0.1476,-0.1471,-0.1365,-0.1359,-0.141,-0.1346,-0.1336,-0.132,-0.1318,-0.1315,-0.1286,-0.1285,-0.13,-0.1303,-0.1306,-0.1278,-0.1319,-0.1321,-0.1322,-0.1304,-0.1303,-0.1301,0,0,0,0,0,0,-0.1477,-0.1467,-0.1363,-0.1367,-0.1361,-0.1349,-0.134,-0.1354,-0.1321,-0.1309,-0.1306,-0.1286,-0.1313,-0.1302,-0.1305,-0.1326,-0.1318,-0.1319,-0.132,-0.1321,-0.1303,-0.1302,0,0,0,0,0,0,-0.1472,-0.1463,-0.1368,-0.1364,-0.1359,-0.1294,-0.1364,-0.1312,-0.1275,-0.1312,-0.1275,-0.1274,-0.1314,-0.1315,-0.1304,-0.1324,-0.1326,-0.1318,-0.1319,-0.1319,-0.132,0,0,0,0,0,0,0,-0.1468,-0.1534,-0.1393,-0.1362,-0.1358,-0.1301,-0.13,-0.13,-0.1275,-0.1275,-0.1275,-0.1275,-0.131,-0.1312,-0.1313,-0.1322,0,0,-0.1318,-0.1318,0,0,0,0,0,0,0,0,-0.1536,-0.1534,-0.1393,-0.1391,-0.139,-0.1301,-0.13,-0.13,-0.1275,-0.1275,-0.1275,-0.1275,-0.1311,-0.1312,-0.1313,0,0,0,0,0,0,0,0,0,0,0,0,0,0,0,-0.1393,-0.1392,0,-0.1301,-0.13,-0.13,-0.1275,-0.1275,-0.1275,-0.1275,-0.1311,-0.1312,-0.1313,0,0,0,0,0,0,0,0,0,0,0,0,0,0,0,0,0,0,0,0,0,0,0,0,0,0,0,0,0,0,0,0,0,0,0,0,0,0,0,0,0,0,0,0,0,0,0,0,0,0,0,0,0,0,0,0,0,0,0,0,0,0,0,0,0,0,0,0,0]}]],[[{"header":{"parameterUnit":"kt","parameterCategory":2,"dx":1,"dy":1,"la1":30.253999710083008,"la2":30.299108505249023,"lo1":-89.0895004272461,"lo2":-89.04439544677734,"nx":28,"ny":28,"refTime":"2022-10-04T21:00:00:Z","depth":"2","parameterNumber":2,"parameterNumberName":"U-component_of_CURRENTS"},"data":[-0.2272,-0.2213,-0.2212,-0.2212,-0.2195,-0.2214,-0.2292,-0.2481,-0.2437,-0.226,-0.1908,-0.1776,-0.1427,-0.0987,-0.0899,-0.0723,-0.0793,-0.0711,-0.0989,-0.1033,-0.1049,-0.1003,-0.1017,0,0,0,0,0,-0.2352,-0.2288,-0.2269,-0.2262,-0.231,-0.2282,-0.2439,-0.2514,-0.2711,-0.26,-0.263,-0.1991,-0.174,-0.1348,-0.094,-0.0842,-0.0859,-0.0779,-0.0785,-0.0805,-0.0822,-0.0815,-0.0632,-0.0631,-0.0629,-0.0628,0,0,-0.245,-0.2418,-0.2373,-0.2326,-0.2338,-0.242,-0.2444,-0.2567,-0.2676,-0.2695,-0.2743,-0.2537,-0.2202,-0.1537,-0.1362,-0.1097,-0.1191,-0.1047,-0.1054,-0.1063,-0.1067,-0.1098,-0.0952,-0.0953,-0.0954,-0.0955,-0.0955,0,-0.2537,-0.2498,-0.2475,-0.2432,-0.2397,-0.2418,-0.2409,-0.2465,-0.2479,-0.2526,-0.2623,-0.2618,-0.2311,-0.1995,-0.1584,-0.1453,-0.1246,-0.1174,-0.1319,-0.1177,-0.1212,-0.1226,-0.1245,-0.1084,-0.1086,-0.1087,-0.1088,-0.1089,-0.2611,-0.2578,-0.253,-0.2506,-0.2457,-0.2403,-0.2386,-0.236,-0.2372,-0.2357,-0.2381,-0.2257,-0.2247,-0.1968,-0.1674,-0.143,-0.1432,-0.1218,-0.1211,-0.1384,-0.1396,-0.1411,-0.1425,-0.1108,-0.1105,-0.1103,-0.1102,0,-0.265,-0.263,-0.2577,-0.253,-0.2508,-0.2457,-0.24,-0.2374,-0.2316,-0.2285,-0.226,-0.2184,-0.2073,-0.1879,-0.1702,-0.1585,-0.1446,-0.1392,-0.1367,-0.1359,-0.1426,-0.1438,-0.1286,-0.1284,-0.1283,-0.1282,-0.1281,0,-0.2702,-0.2648,-0.2617,-0.2584,-0.2531,-0.2491,-0.2406,-0.2351,-0.2278,-0.2254,-0.214,-0.2125,-0.1931,-0.1828,-0.1724,-0.1579,-0.1574,-0.1483,-0.1479,-0.1436,-0.1434,-0.155,-0.156,-0.147,-0.1471,-0.1471,-0.1472,0,-0.2738,-0.2684,-0.2633,-0.261,-0.256,-0.2492,-0.245,-0.2342,-0.2303,-0.2181,-0.2161,-0.2005,-0.1954,-0.1833,-0.1734,-0.1748,-0.159,-0.1608,-0.1522,-0.1523,-0.1425,-0.1421,-0.1472,-0.1472,-0.1473,-0.1473,-0.1473,0,-0.2754,-0.2743,-0.2669,-0.2638,-0.2614,-0.2549,-0.2448,-0.2389,-0.2268,-0.2218,-0.21,-0.2039,-0.1923,-0.1917,-0.1763,-0.1808,-0.1745,-0.1704,-0.1701,-0.1655,-0.1696,-0.1576,-0.149,-0.1697,-0.1699,-0.1701,-0.1702,0,-0.2822,-0.2771,-0.2736,-0.2661,-0.2631,-0.2568,-0.2507,-0.242,-0.2342,-0.2254,-0.2154,-0.2064,-0.2024,-0.1984,-0.1912,-0.1857,-0.179,-0.1852,-0.1744,-0.1741,-0.1731,-0.1667,-0.1601,-0.1522,-0.1724,-0.1722,-0.172,0,-0.2871,-0.2819,-0.2795,-0.2772,-0.2689,-0.2653,-0.2565,-0.2471,-0.2411,-0.2306,-0.2215,-0.2091,-0.205,-0.1994,-0.1952,-0.1895,-0.183,-0.1893,-0.189,-0.1869,-0.1718,-0.1701,-0.1685,-0.182,-0.1817,-0.1815,-0.1737,0,-0.2917,-0.2867,-0.2841,-0.2773,-0.2729,-0.2672,-0.2607,-0.2544,-0.2475,-0.2407,-0.2285,-0.2205,-0.2092,-0.2071,-0.2038,-0.1942,-0.1949,-0.1947,-0.1937,-0.1908,-0.1882,-0.1869,-0.2021,-0.2021,-0.202,-0.202,0,0,-0.2968,-0.2913,-0.288,-0.284,-0.2792,-0.2731,-0.2677,-0.2616,-0.2495,-0.2439,-0.2428,-0.2237,-0.2176,-0.2063,-0.2049,-0.2031,-0.2004,-0.2004,-0.1934,-0.1925,-0.1916,-0.189,-0.1877,-0.202,-0.202,-0.2019,-0.2019,0,-0.2982,-0.2942,-0.2904,-0.2863,-0.2783,-0.2734,-0.2716,-0.2616,-0.2555,-0.2462,-0.2394,-0.2314,-0.2197,-0.2127,-0.208,-0.2036,-0.1994,-0.2023,-0.1993,-0.1935,-0.1926,-0.1918,-0.1891,-0.188,-0.2019,-0.2019,-0.2019,0,-0.3011,-0.2971,-0.294,-0.287,-0.2802,-0.2749,-0.2707,-0.2632,-0.2572,-0.25,-0.2383,-0.2324,-0.224,-0.2157,-0.2114,-0.2112,-0.199,-0.2027,-0.2028,-0.1997,-0.1935,-0.1926,-0.1917,-0.2023,-0.2023,-0.2023,0,0,-0.3025,-0.2987,-0.2916,-0.2865,-0.2837,-0.2741,-0.2693,-0.2637,-0.2552,-0.2506,-0.2421,-0.2332,-0.2258,-0.2207,-0.2137,-0.2065,-0.2028,-0.203,-0.2029,-0.2029,-0.2,-0.1938,-0.1929,-0.2024,-0.2024,-0.2024,0,0,-0.302,-0.2946,-0.2911,-0.286,-0.2796,-0.2697,-0.2649,-0.2598,-0.2504,-0.2477,-0.2392,-0.2366,-0.2278,-0.2234,-0.2253,-0.2126,-0.2126,-0.212,-0.2151,-0.215,-0.215,-0.2131,-0.2206,0,0,0,0,0,-0.2988,-0.2965,-0.2935,-0.2915,-0.2787,-0.272,-0.2698,-0.2606,-0.2562,-0.2537,-0.2448,-0.2407,-0.2229,-0.2244,-0.2221,-0.2185,-0.2033,-0.2031,-0.203,-0.2052,-0.2052,-0.2052,0,0,0,0,0,0,-0.298,-0.2959,-0.2934,-0.2842,-0.2811,-0.272,-0.2664,-0.2638,-0.2564,-0.2552,-0.2425,-0.2405,-0.2348,-0.2251,-0.2231,-0.2198,-0.2213,-0.2032,-0.2031,-0.203,-0.2052,-0.2052,-0.2052,0,0,0,0,0,-0.2973,-0.2956,-0.2781,-0.284,-0.2813,-0.2691,-0.2664,-0.2642,-0.2571,-0.2475,-0.2451,-0.2503,-0.2351,-0.2328,-0.2239,-0.2208,-0.2226,-0.2219,-0.2031,-0.203,-0.2029,-0.2052,0,0,0,0,0,0,-0.2968,-0.2925,-0.2772,-0.276,-0.2838,-0.2693,-0.267,-0.2645,-0.2496,-0.2473,-0.2554,-0.2547,-0.2353,-0.2334,-0.2317,-0.2215,-0.2236,-0.2229,-0.2225,-0.2031,-0.203,-0.2029,0,0,0,0,0,0,-0.2933,-0.2916,-0.2766,-0.2768,-0.2755,-0.2695,-0.2675,-0.2606,-0.2495,-0.2582,-0.2572,-0.2552,-0.2381,-0.2339,-0.2325,-0.222,-0.2245,-0.2238,-0.2233,-0.223,-0.203,-0.2029,0,0,0,0,0,0,-0.2924,-0.2908,-0.2771,-0.2761,-0.2749,-0.2597,-0.2631,-0.2504,-0.25,-0.259,-0.2497,-0.2496,-0.2387,-0.2371,-0.2331,-0.2233,-0.2223,-0.2244,-0.224,-0.2236,-0.2234,0,0,0,0,0,0,0,-0.2915,-0.305,-0.2851,-0.2754,-0.2744,-0.2643,-0.2639,-0.2635,-0.2499,-0.2498,-0.2497,-0.2496,-0.2283,-0.2276,-0.2268,-0.2243,0,0,-0.2245,-0.2242,0,0,0,0,0,0,0,0,-0.3053,-0.3051,-0.285,-0.2848,-0.2846,-0.2642,-0.2639,-0.2636,-0.2499,-0.2498,-0.2497,-0.2497,-0.2281,-0.2275,-0.2269,0,0,0,0,0,0,0,0,0,0,0,0,0,0,0,-0.285,-0.2848,0,-0.2642,-0.2639,-0.2637,-0.2499,-0.2498,-0.2498,-0.2497,-0.228,-0.2275,-0.227,0,0,0,0,0,0,0,0,0,0,0,0,0,0,0,0,0,0,0,0,0,0,0,0,0,0,0,0,0,0,0,0,0,0,0,0,0,0,0,0,0,0,0,0,0,0,0,0,0,0,0,0,0,0,0,0,0,0,0,0,0,0,0,0,0,0,0,0,0]}],[{"header":{"parameterUnit":"kt","parameterCategory":2,"dx":1,"dy":1,"la1":30.253999710083008,"la2":30.299108505249023,"lo1":-89.0895004272461,"lo2":-89.04439544677734,"nx":28,"ny":28,"refTime":"2022-10-04T21:00:00:Z","depth":"2","parameterNumber":3,"parameterNumberName":"V-component_of_CURRENTS"},"data":[0.0069,-0.0018,-0.0084,-0.0221,-0.0265,-0.0349,-0.0361,-0.042,-0.0427,-0.0501,-0.0523,-0.0705,-0.0324,-0.0255,-0.0031,0.0211,0.0295,0.0225,0.0406,0.0233,0.0245,0.0426,0.0366,0,0,0,0,0,0.0067,0.0014,-0.0042,-0.0118,-0.0189,-0.0163,-0.0149,-0.0202,-0.0184,-0.0152,-0.0134,-0.0176,-0.0155,0.0108,0.0307,0.0431,0.0375,0.0552,0.0427,0.0438,0.0449,0.0409,0.0335,0.0336,0.0337,0.0339,0,0,0.0064,0.0029,-0.0014,-0.0057,-0.0081,-0.0099,-0.0121,-0.006,-0.0005,0.0052,0.0239,0.0254,0.0346,0.03,0.0468,0.0663,0.0661,0.0657,0.0657,0.066,0.0633,0.0571,0.0617,0.0619,0.0621,0.0623,0.0624,0,0.0055,0.0043,0.0025,-0.0021,-0.0035,-0.0036,-0.001,0.0023,0.0148,0.0241,0.0433,0.0503,0.0668,0.0658,0.0715,0.0717,0.0765,0.0754,0.0947,0.054,0.0467,0.048,0.0481,0.0504,0.0506,0.0507,0.0508,0.0509,0.0067,0.0048,0.0034,0.0019,0.0018,0.002,0.0032,0.0103,0.0152,0.0369,0.0427,0.0607,0.0679,0.0837,0.0845,0.0855,0.0949,0.0785,0.0724,0.0828,0.0845,0.0834,0.0824,0.0527,0.0524,0.0522,0.0521,0,0.0076,0.0071,0.0062,0.0075,0.0077,0.0075,0.012,0.0151,0.0238,0.0331,0.0359,0.0525,0.0658,0.0697,0.0808,0.0793,0.0857,0.0876,0.0651,0.0655,0.082,0.0812,0.0922,0.0924,0.0926,0.0927,0.0928,0,0.0104,0.0104,0.0103,0.0091,0.0101,0.013,0.0161,0.0198,0.0273,0.0338,0.0394,0.0486,0.0539,0.062,0.0633,0.0719,0.0738,0.0747,0.0776,0.061,0.0597,0.0748,0.0746,0.0766,0.0765,0.0765,0.0765,0,0.0141,0.0137,0.0126,0.0125,0.0148,0.0162,0.0173,0.023,0.0262,0.0333,0.0394,0.0444,0.0497,0.0543,0.0594,0.0574,0.0709,0.0702,0.0744,0.0744,0.0655,0.0645,0.0764,0.0764,0.0764,0.0764,0.0764,0,0.0174,0.0164,0.0145,0.0175,0.0178,0.0172,0.022,0.0226,0.0286,0.0321,0.036,0.04,0.0439,0.0429,0.0517,0.0497,0.0532,0.0572,0.0576,0.0655,0.0673,0.0558,0.0519,0.0607,0.0605,0.0604,0.0603,0,0.0212,0.0184,0.0194,0.0182,0.0169,0.0194,0.0204,0.0223,0.0248,0.0293,0.0317,0.0361,0.0334,0.0368,0.04,0.048,0.05,0.0455,0.062,0.0624,0.0661,0.0654,0.0477,0.0506,0.0589,0.059,0.0591,0,0.0235,0.0226,0.0225,0.0229,0.0224,0.0218,0.0215,0.0229,0.0262,0.0256,0.031,0.0311,0.0346,0.0378,0.0407,0.0449,0.0473,0.0489,0.0495,0.0509,0.0598,0.0628,0.064,0.0532,0.0534,0.0536,0.058,0,0.0266,0.026,0.0248,0.0239,0.0238,0.0226,0.023,0.0233,0.0252,0.0273,0.0308,0.0337,0.0399,0.0394,0.0416,0.0459,0.0475,0.0516,0.0574,0.0546,0.0563,0.0571,0.0497,0.0499,0.05,0.0501,0,0,0.0304,0.0284,0.0286,0.0273,0.0278,0.029,0.0283,0.0282,0.0305,0.0331,0.0336,0.0409,0.0444,0.0488,0.0467,0.0478,0.0519,0.0518,0.0542,0.0546,0.055,0.0566,0.0573,0.0504,0.0504,0.0505,0.0505,0,0.0309,0.0307,0.0293,0.0289,0.0295,0.0302,0.0299,0.0313,0.0334,0.0336,0.0394,0.0423,0.0466,0.051,0.0537,0.0494,0.0576,0.0505,0.0482,0.0552,0.0553,0.0556,0.0571,0.0576,0.0509,0.0509,0.0509,0,0.0334,0.0334,0.0329,0.0319,0.0331,0.0321,0.0361,0.0362,0.0363,0.0436,0.0457,0.0491,0.0549,0.0562,0.0577,0.0604,0.0632,0.0613,0.0606,0.0628,0.0704,0.0705,0.0705,0.0702,0.0703,0.0703,0,0,0.0343,0.0332,0.0336,0.0322,0.0321,0.0349,0.0355,0.038,0.0407,0.0426,0.0474,0.0525,0.0557,0.0586,0.0617,0.0626,0.0677,0.0634,0.0625,0.0617,0.0633,0.0707,0.0707,0.0704,0.0704,0.0705,0,0,0.0354,0.0356,0.0372,0.0353,0.0356,0.0378,0.0382,0.0406,0.0439,0.046,0.0529,0.0547,0.0568,0.061,0.0618,0.0647,0.0688,0.0686,0.062,0.0609,0.06,0.0613,0.0698,0,0,0,0,0,0.037,0.0348,0.0361,0.0361,0.037,0.0361,0.0365,0.0413,0.045,0.0446,0.0496,0.0555,0.0629,0.0638,0.0649,0.0648,0.0722,0.0719,0.0716,0.0632,0.062,0.061,0,0,0,0,0,0,0.0369,0.0367,0.0362,0.0378,0.0381,0.0362,0.0421,0.0434,0.0452,0.0463,0.054,0.0556,0.0607,0.0637,0.0646,0.0644,0.0695,0.0721,0.0718,0.0716,0.0628,0.0618,0.061,0,0,0,0,0,0.0369,0.0367,0.037,0.038,0.0382,0.0434,0.0424,0.0435,0.0456,0.0524,0.0541,0.0495,0.0603,0.0618,0.0643,0.0638,0.0689,0.0693,0.0719,0.0717,0.0715,0.0623,0,0,0,0,0,0,0.037,0.0381,0.0372,0.0375,0.0403,0.0438,0.0444,0.0435,0.0519,0.0534,0.0482,0.0489,0.0601,0.0612,0.0622,0.0632,0.0685,0.0688,0.069,0.0717,0.0716,0.0714,0,0,0,0,0,0,0.0383,0.0383,0.0373,0.04,0.0406,0.0441,0.0446,0.047,0.0521,0.0474,0.0481,0.0485,0.0604,0.0608,0.0617,0.0651,0.0681,0.0684,0.0686,0.0688,0.0716,0.0715,0,0,0,0,0,0,0.0384,0.0385,0.0399,0.0404,0.0411,0.045,0.0466,0.0487,0.0504,0.0471,0.0511,0.0514,0.06,0.0609,0.0612,0.0642,0.0649,0.0681,0.0683,0.0685,0.0686,0,0,0,0,0,0,0,0.0385,0.0367,0.0352,0.0408,0.0414,0.0403,0.0404,0.0405,0.0504,0.0507,0.051,0.0513,0.0663,0.0667,0.067,0.0635,0,0,0.0681,0.0682,0,0,0,0,0,0,0,0,0.0368,0.0367,0.0352,0.0352,0.0353,0.0403,0.0404,0.0405,0.0505,0.0507,0.051,0.0512,0.0664,0.0667,0.067,0,0,0,0,0,0,0,0,0,0,0,0,0,0,0,0.0352,0.0352,0,0.0403,0.0404,0.0405,0.0505,0.0507,0.0509,0.0511,0.0665,0.0667,0.0669,0,0,0,0,0,0,0,0,0,0,0,0,0,0,0,0,0,0,0,0,0,0,0,0,0,0,0,0,0,0,0,0,0,0,0,0,0,0,0,0,0,0,0,0,0,0,0,0,0,0,0,0,0,0,0,0,0,0,0,0,0,0,0,0,0,0,0,0,0]}]],[[{"header":{"parameterUnit":"kt","parameterCategory":2,"dx":1,"dy":1,"la1":30.253999710083008,"la2":30.299108505249023,"lo1":-89.0895004272461,"lo2":-89.04439544677734,"nx":28,"ny":28,"refTime":"2022-10-04T21:00:00:Z","depth":"4","parameterNumber":2,"parameterNumberName":"U-component_of_CURRENTS"},"data":[-0.1105,-0.1118,-0.1109,-0.101,-0.0959,-0.0936,-0.0969,-0.1036,-0.1012,-0.1115,-0.1096,-0.116,-0.114,-0.1221,-0.1119,-0.1127,-0.1232,-0.1227,-0.1223,-0.1481,-0.1506,-0.1528,-0.1443,0,0,0,0,0,-0.114,-0.113,-0.1134,-0.1118,-0.1117,-0.1115,-0.1181,-0.1229,-0.1322,-0.1248,-0.1296,-0.127,-0.1219,-0.1237,-0.1164,-0.1289,-0.1397,-0.1198,-0.1414,-0.1497,-0.1524,-0.1432,0,0,0,0,0,0,-0.1187,-0.1186,-0.1225,-0.1237,-0.1249,-0.1217,-0.1257,-0.1257,-0.1282,-0.1376,-0.1353,-0.1381,-0.1441,-0.1372,-0.1384,-0.1357,-0.1379,-0.1375,-0.1407,-0.1434,-0.1338,-0.1229,-0.1032,0,0,0,0,0,-0.1222,-0.1264,-0.1289,-0.1313,-0.1336,-0.1344,-0.1379,-0.1385,-0.1466,-0.1548,-0.1505,-0.1483,-0.1465,-0.1484,-0.1468,-0.1517,-0.1713,-0.1646,-0.1663,-0.1714,-0.1658,-0.1667,-0.168,-0.1626,-0.163,-0.1632,-0.1633,0,-0.128,-0.1292,-0.1366,-0.1376,-0.1407,-0.1445,-0.1462,-0.1541,-0.1559,-0.1629,-0.1629,-0.1652,-0.1684,-0.1604,-0.1699,-0.1726,-0.1729,-0.1715,-0.177,-0.1702,-0.1703,-0.171,-0.1715,-0.1655,-0.1653,-0.1651,-0.165,0,-0.1312,-0.1357,-0.1387,-0.1452,-0.1472,-0.1492,-0.1557,-0.157,-0.1642,-0.1672,-0.1693,-0.176,-0.1777,-0.1841,-0.1928,-0.1897,-0.1906,-0.1867,-0.2048,-0.2055,-0.1756,-0.1752,-0.1691,-0.1683,-0.1676,-0.167,-0.1666,0,-0.1368,-0.139,-0.1454,-0.1466,-0.1492,-0.1548,-0.1581,-0.1625,-0.1684,-0.1703,-0.1778,-0.1796,-0.1911,-0.194,-0.2,-0.1952,-0.2074,-0.1932,-0.1924,-0.2143,-0.2139,-0.2141,-0.2135,-0.2185,-0.2185,-0.2185,-0.2185,0,-0.1398,-0.1451,-0.1472,-0.1492,-0.1553,-0.1578,-0.1612,-0.1668,-0.1693,-0.1756,-0.178,-0.1856,-0.1894,-0.1967,-0.2008,-0.2036,-0.2079,-0.2128,-0.1959,-0.1944,-0.2138,-0.2133,-0.2184,-0.2184,-0.2184,-0.2184,-0.2184,0,-0.1443,-0.1466,-0.1498,-0.1543,-0.1557,-0.1588,-0.164,-0.1672,-0.1726,-0.1756,-0.1809,-0.1847,-0.1907,-0.1929,-0.2017,-0.2007,-0.2046,-0.2077,-0.2079,-0.1862,-0.1851,-0.2031,-0.2088,-0.2087,-0.2086,-0.2086,-0.2085,0,-0.1448,-0.148,-0.1514,-0.1552,-0.1568,-0.1616,-0.1648,-0.1686,-0.1721,-0.1754,-0.1804,-0.1851,-0.1879,-0.1914,-0.1954,-0.2006,-0.2033,-0.201,-0.2066,-0.2066,-0.1849,-0.185,-0.2064,-0.2076,-0.2077,-0.2078,-0.2079,0,-0.1446,-0.1499,-0.1509,-0.1524,-0.1583,-0.1601,-0.1645,-0.1676,-0.1698,-0.1747,-0.1773,-0.185,-0.1872,-0.19,-0.1938,-0.1971,-0.2017,-0.1989,-0.1991,-0.1974,-0.209,-0.1867,-0.1851,-0.2058,-0.2059,-0.206,-0.2072,0,-0.1454,-0.1483,-0.1502,-0.154,-0.1568,-0.1597,-0.163,-0.1659,-0.1689,-0.1703,-0.1767,-0.1812,-0.186,-0.1891,-0.1906,-0.1964,-0.1962,-0.1979,-0.1951,-0.1993,-0.1992,-0.1997,-0.1933,-0.1932,-0.1932,-0.1932,0,0,-0.1439,-0.1462,-0.1493,-0.1516,-0.1537,-0.1572,-0.1594,-0.1618,-0.1662,-0.1674,-0.1691,-0.178,-0.1812,-0.1868,-0.189,-0.1912,-0.1927,-0.1899,-0.1976,-0.1981,-0.1985,-0.1987,-0.1992,-0.1931,-0.1931,-0.1931,-0.1931,0,-0.1431,-0.1462,-0.1482,-0.1506,-0.1544,-0.1558,-0.1575,-0.1606,-0.1627,-0.1669,-0.1696,-0.1743,-0.18,-0.1826,-0.1848,-0.1903,-0.1907,-0.1931,-0.193,-0.1972,-0.1977,-0.1982,-0.1984,-0.1989,-0.193,-0.193,-0.193,0,-0.1417,-0.1438,-0.1453,-0.1487,-0.151,-0.1533,-0.154,-0.1578,-0.1598,-0.1617,-0.1662,-0.1698,-0.1737,-0.1786,-0.1814,-0.1801,-0.1877,-0.1861,-0.1864,-0.1847,-0.1888,-0.1895,-0.1901,-0.1821,-0.1821,-0.182,0,0,-0.1411,-0.1437,-0.146,-0.1486,-0.1501,-0.1526,-0.1544,-0.1562,-0.1594,-0.1613,-0.1638,-0.1677,-0.1719,-0.1743,-0.1776,-0.1817,-0.1818,-0.1846,-0.1852,-0.1856,-0.1841,-0.1883,-0.189,-0.1818,-0.1818,-0.1818,0,0,-0.1406,-0.1437,-0.1447,-0.1475,-0.1499,-0.1519,-0.1544,-0.1558,-0.1597,-0.1612,-0.1631,-0.1641,-0.1701,-0.1712,-0.1685,-0.1772,-0.1753,-0.1759,-0.1757,-0.1764,-0.1769,-0.1741,-0.1678,0,0,0,0,0,-0.1412,-0.143,-0.1439,-0.1447,-0.1485,-0.151,-0.1516,-0.1543,-0.1558,-0.1576,-0.161,-0.1613,-0.1705,-0.1681,-0.1689,-0.172,-0.1794,-0.1798,-0.1802,-0.1811,-0.1818,-0.1824,0,0,0,0,0,0,-0.1415,-0.1423,-0.1439,-0.1457,-0.1466,-0.1509,-0.1513,-0.1521,-0.1557,-0.1561,-0.1605,-0.1613,-0.1621,-0.1678,-0.1685,-0.1714,-0.1676,-0.1796,-0.1799,-0.1803,-0.1814,-0.1819,-0.1824,0,0,0,0,0,-0.1417,-0.1424,-0.148,-0.1457,-0.1465,-0.1502,-0.1514,-0.152,-0.1554,-0.1576,-0.1585,-0.1578,-0.162,-0.1629,-0.1682,-0.1711,-0.1671,-0.1674,-0.1798,-0.1801,-0.1804,-0.1816,0,0,0,0,0,0,-0.1419,-0.1425,-0.1482,-0.1485,-0.1464,-0.1501,-0.1508,-0.152,-0.1568,-0.1577,-0.1547,-0.155,-0.1619,-0.1626,-0.1633,-0.171,-0.1667,-0.167,-0.1672,-0.18,-0.1803,-0.1805,0,0,0,0,0,0,-0.1422,-0.1428,-0.1484,-0.149,-0.1495,-0.15,-0.1507,-0.1531,-0.1569,-0.1537,-0.154,-0.1548,-0.1618,-0.1624,-0.1629,-0.1664,-0.1665,-0.1667,-0.1669,-0.167,-0.1802,-0.1804,0,0,0,0,0,0,-0.1425,-0.143,-0.149,-0.1493,-0.1497,-0.1534,-0.1523,-0.1566,-0.1559,-0.1534,-0.1561,-0.1563,-0.1616,-0.1622,-0.1627,-0.1659,-0.1663,-0.1665,-0.1666,-0.1668,-0.1668,0,0,0,0,0,0,0,-0.1427,-0.139,-0.1465,-0.1495,-0.1498,-0.1516,-0.1517,-0.1517,-0.1559,-0.156,-0.1561,-0.1562,-0.1651,-0.1653,-0.1656,-0.1655,0,0,-0.1664,-0.1666,0,0,0,0,0,0,0,0,-0.1388,-0.1389,-0.1465,-0.1466,-0.1467,-0.1516,-0.1517,-0.1517,-0.156,-0.156,-0.1561,-0.1562,-0.1651,-0.1653,-0.1656,0,0,0,0,0,0,0,0,0,0,0,0,0,0,0,-0.1465,-0.1466,0,-0.1516,-0.1517,-0.1517,-0.156,-0.156,-0.1561,-0.1561,-0.1652,-0.1654,-0.1655,0,0,0,0,0,0,0,0,0,0,0,0,0,0,0,0,0,0,0,0,0,0,0,0,0,0,0,0,0,0,0,0,0,0,0,0,0,0,0,0,0,0,0,0,0,0,0,0,0,0,0,0,0,0,0,0,0,0,0,0,0,0,0,0,0,0,0,0,0]}],[{"header":{"parameterUnit":"kt","parameterCategory":2,"dx":1,"dy":1,"la1":30.253999710083008,"la2":30.299108505249023,"lo1":-89.0895004272461,"lo2":-89.04439544677734,"nx":28,"ny":28,"refTime":"2022-10-04T21:00:00:Z","depth":"4","parameterNumber":3,"parameterNumberName":"V-component_of_CURRENTS"},"data":[-0.0987,-0.106,-0.1092,-0.1208,-0.1286,-0.1406,-0.1467,-0.1497,-0.1462,-0.1479,-0.1387,-0.1358,-0.1195,-0.1337,-0.1037,-0.1004,-0.098,-0.0817,-0.0813,-0.0828,-0.084,-0.0851,-0.0849,0,0,0,0,0,-0.0979,-0.1022,-0.1109,-0.1215,-0.1327,-0.1392,-0.1483,-0.1512,-0.1547,-0.1516,-0.1517,-0.143,-0.1255,-0.1205,-0.1049,-0.1073,-0.095,-0.0884,-0.0897,-0.0836,-0.0849,-0.0843,0,0,0,0,0,0,-0.0973,-0.1019,-0.1096,-0.119,-0.1306,-0.1393,-0.144,-0.1475,-0.1512,-0.1544,-0.1534,-0.147,-0.1457,-0.1261,-0.1141,-0.101,-0.0965,-0.0914,-0.0922,-0.0933,-0.0938,-0.092,-0.083,0,0,0,0,0,-0.0958,-0.1,-0.1066,-0.1173,-0.1263,-0.1362,-0.1449,-0.1472,-0.1537,-0.1578,-0.1558,-0.1483,-0.1408,-0.1294,-0.1163,-0.1041,-0.1047,-0.097,-0.0976,-0.0968,-0.0953,-0.093,-0.0937,-0.0899,-0.0901,-0.0902,-0.0903,0,-0.0937,-0.0976,-0.1092,-0.1152,-0.1205,-0.1302,-0.1372,-0.1441,-0.1485,-0.1548,-0.1568,-0.1548,-0.1533,-0.1343,-0.127,-0.1099,-0.106,-0.1006,-0.0997,-0.0975,-0.0947,-0.0952,-0.0955,-0.0913,-0.0912,-0.0912,-0.0911,0,-0.0923,-0.0966,-0.1051,-0.1145,-0.1185,-0.1253,-0.1362,-0.1421,-0.1467,-0.1531,-0.1548,-0.1568,-0.1507,-0.1441,-0.1358,-0.1261,-0.1155,-0.109,-0.1215,-0.1189,-0.0975,-0.0974,-0.0931,-0.0927,-0.0924,-0.0921,-0.0919,0,-0.0907,-0.0969,-0.1039,-0.1078,-0.1174,-0.122,-0.1318,-0.1367,-0.1427,-0.1479,-0.1489,-0.1513,-0.1482,-0.1444,-0.136,-0.1233,-0.1295,-0.1121,-0.1088,-0.1206,-0.1204,-0.1175,-0.117,-0.1225,-0.1225,-0.1226,-0.1226,0,-0.0875,-0.0956,-0.1023,-0.1052,-0.1137,-0.1191,-0.1242,-0.1309,-0.1353,-0.1411,-0.1437,-0.1455,-0.1469,-0.1413,-0.1338,-0.1327,-0.1276,-0.1257,-0.1111,-0.1102,-0.1175,-0.117,-0.1226,-0.1226,-0.1227,-0.1227,-0.1227,0,-0.086,-0.0897,-0.0973,-0.106,-0.108,-0.1133,-0.1224,-0.127,-0.1324,-0.1344,-0.1375,-0.1373,-0.1395,-0.1349,-0.1321,-0.1317,-0.1261,-0.1224,-0.1221,-0.1102,-0.1047,-0.1093,-0.1156,-0.1156,-0.1156,-0.1156,-0.1156,0,-0.0828,-0.0886,-0.0907,-0.0988,-0.1024,-0.1054,-0.1109,-0.1154,-0.1184,-0.1233,-0.1243,-0.1289,-0.1258,-0.1274,-0.1267,-0.1244,-0.1229,-0.1235,-0.1149,-0.1146,-0.1045,-0.1079,-0.1204,-0.1154,-0.1154,-0.1154,-0.1154,0,-0.0795,-0.0842,-0.0853,-0.089,-0.093,-0.0954,-0.101,-0.1059,-0.1104,-0.1124,-0.1181,-0.1222,-0.1215,-0.1225,-0.1216,-0.1208,-0.1222,-0.1158,-0.1156,-0.113,-0.119,-0.1088,-0.1079,-0.1199,-0.12,-0.1201,-0.1153,0,-0.0785,-0.0819,-0.0829,-0.0865,-0.0888,-0.0914,-0.0936,-0.0967,-0.0988,-0.1006,-0.1064,-0.1076,-0.1111,-0.1117,-0.1108,-0.115,-0.111,-0.1093,-0.1045,-0.1097,-0.1067,-0.1069,-0.1032,-0.103,-0.1029,-0.1028,0,0,-0.0756,-0.0782,-0.0776,-0.0799,-0.0823,-0.0818,-0.0854,-0.0871,-0.0901,-0.0926,-0.0915,-0.098,-0.0986,-0.1041,-0.1062,-0.1059,-0.103,-0.1026,-0.1074,-0.1079,-0.1084,-0.1059,-0.1061,-0.1026,-0.1026,-0.1025,-0.1025,0,-0.0741,-0.0751,-0.0769,-0.0782,-0.0794,-0.0802,-0.0811,-0.0825,-0.0844,-0.0888,-0.0894,-0.0928,-0.0946,-0.0966,-0.0975,-0.1038,-0.0984,-0.103,-0.1066,-0.1064,-0.1071,-0.1077,-0.1054,-0.1057,-0.1022,-0.1022,-0.1022,0,-0.0722,-0.0726,-0.0736,-0.0749,-0.0754,-0.0779,-0.0762,-0.0778,-0.0811,-0.0792,-0.0847,-0.0855,-0.0861,-0.0898,-0.0912,-0.0885,-0.093,-0.0921,-0.0927,-0.093,-0.0925,-0.0934,-0.0941,-0.0842,-0.0842,-0.0841,0,0,-0.0711,-0.0725,-0.0728,-0.0745,-0.0748,-0.0755,-0.0764,-0.0771,-0.0785,-0.0797,-0.0806,-0.082,-0.0844,-0.0849,-0.0864,-0.0886,-0.0863,-0.0901,-0.091,-0.0917,-0.0923,-0.0921,-0.0929,-0.0839,-0.0839,-0.0839,0,0,-0.0702,-0.0708,-0.0713,-0.0731,-0.0739,-0.0739,-0.0752,-0.076,-0.0786,-0.0792,-0.0787,-0.0789,-0.0832,-0.0814,-0.0795,-0.0844,-0.0807,-0.0811,-0.0856,-0.0866,-0.0874,-0.088,-0.0758,0,0,0,0,0,-0.0689,-0.0705,-0.071,-0.0713,-0.0729,-0.0737,-0.074,-0.0748,-0.0754,-0.0768,-0.0787,-0.0763,-0.0807,-0.079,-0.0789,-0.0814,-0.0818,-0.0822,-0.0825,-0.089,-0.0901,-0.091,0,0,0,0,0,0,-0.069,-0.0693,-0.0709,-0.0709,-0.0712,-0.0736,-0.073,-0.0733,-0.0753,-0.0755,-0.0763,-0.0762,-0.0753,-0.0788,-0.0788,-0.0812,-0.0758,-0.082,-0.0823,-0.0826,-0.0894,-0.0903,-0.091,0,0,0,0,0,-0.0691,-0.0694,-0.0719,-0.0709,-0.0712,-0.0724,-0.0731,-0.0733,-0.0755,-0.0745,-0.0746,-0.0762,-0.0753,-0.0754,-0.0788,-0.0813,-0.0757,-0.0757,-0.0822,-0.0824,-0.0826,-0.0898,0,0,0,0,0,0,-0.0692,-0.0699,-0.072,-0.0721,-0.0708,-0.0723,-0.0726,-0.0733,-0.0744,-0.0746,-0.0741,-0.0742,-0.0753,-0.0754,-0.0754,-0.0815,-0.0757,-0.0757,-0.0757,-0.0824,-0.0826,-0.0827,0,0,0,0,0,0,-0.0697,-0.07,-0.0721,-0.0719,-0.072,-0.0723,-0.0725,-0.0728,-0.0744,-0.074,-0.0741,-0.0741,-0.0747,-0.0754,-0.0754,-0.0758,-0.0757,-0.0757,-0.0757,-0.0757,-0.0825,-0.0827,0,0,0,0,0,0,-0.0698,-0.0701,-0.0719,-0.072,-0.0721,-0.0736,-0.0725,-0.074,-0.0749,-0.074,-0.0749,-0.0749,-0.0747,-0.0748,-0.0754,-0.0758,-0.0758,-0.0757,-0.0757,-0.0757,-0.0757,0,0,0,0,0,0,0,-0.0699,-0.0683,-0.0711,-0.072,-0.0721,-0.0732,-0.0733,-0.0733,-0.0749,-0.0749,-0.0749,-0.0749,-0.0755,-0.0755,-0.0756,-0.0758,0,0,-0.0757,-0.0757,0,0,0,0,0,0,0,0,-0.0682,-0.0682,-0.0711,-0.0711,-0.0711,-0.0732,-0.0733,-0.0733,-0.0749,-0.0749,-0.0749,-0.0749,-0.0755,-0.0755,-0.0756,0,0,0,0,0,0,0,0,0,0,0,0,0,0,0,-0.0711,-0.0711,0,-0.0732,-0.0733,-0.0733,-0.0749,-0.0749,-0.0749,-0.0749,-0.0755,-0.0755,-0.0756,0,0,0,0,0,0,0,0,0,0,0,0,0,0,0,0,0,0,0,0,0,0,0,0,0,0,0,0,0,0,0,0,0,0,0,0,0,0,0,0,0,0,0,0,0,0,0,0,0,0,0,0,0,0,0,0,0,0,0,0,0,0,0,0,0,0,0,0,0]}]]]